When you browse on this site, cookies collect data to enhance your experience and personalize the content and advertising you see.
Visit our Privacy Policy to learn more. By continuing to use the site, you agree to this use of cookies and data.
  • en France
  • Liste des pays
  • À 7 jours
  • Température de l'eau
  • Carte satellitaire
  • Carte météo
  • Widgets météo
  • user-avatar
    Se connecter

    Météo par heure à Suharevo

    Ce jour, 19 Février, Mardi

    Heure Température Précipitation Vent Pression Humidité
    00:00 -3°C° 0 mm 4 m/s 758 mmHg 73%
    01:00 -4°C° 0 mm 5 m/s 757 mmHg 75%
    02:00 -4°C° 0 mm 5 m/s 757 mmHg 76%
    03:00 -4°C° 0 mm 5 m/s 756 mmHg 80%
    04:00 -4°C° 0 mm 5 m/s 756 mmHg 83%
    05:00 -2°C° 0 mm 5 m/s 755 mmHg 86%
    06:00 -2°C° 0 mm 5 m/s 755 mmHg 87%
    07:00 -2°C° 0 mm 5 m/s 754 mmHg 87%
    08:00 -2°C° 0 mm 4 m/s 754 mmHg 88%
    09:00 -1°C° 0 mm 4 m/s 753 mmHg 88%
    10:00 -1°C° 0 mm 4 m/s 753 mmHg 88%
    11:00 0°C° 0 mm 4 m/s 752 mmHg 87%
    12:00 0°C° 0 mm 4 m/s 752 mmHg 87%
    13:00 0°C° 0 mm 4 m/s 751 mmHg 87%
    14:00 +1°C° 0 mm 4 m/s 751 mmHg 86%
    15:00 0°C° 0 mm 4 m/s 750 mmHg 87%
    16:00 0°C° 0 mm 4 m/s 749 mmHg 88%
    17:00 0°C° 0 mm 4 m/s 748 mmHg 88%
    18:00 0°C° 0 mm 4 m/s 748 mmHg 89%
    19:00 0°C° 0 mm 4 m/s 747 mmHg 89%
    20:00 +1°C° 0 mm 4 m/s 746 mmHg 89%
    21:00 +1°C° 0 mm 4 m/s 746 mmHg 89%
    22:00 +1°C° 0 mm 4 m/s 745 mmHg 89%
    23:00 0°C° 0 mm 4 m/s 744 mmHg 90%

    Demain, 20 Février, Mercredi

    Heure Température Précipitation Vent Pression Humidité
    00:00 +1°C° 0.3 mm 4 m/s 744 mmHg 90%
    01:00 +1°C° 0.3 mm 4 m/s 744 mmHg 90%
    02:00 +1°C° 0.3 mm 4 m/s 744 mmHg 91%
    03:00 +1°C° 0.1 mm 4 m/s 743 mmHg 91%
    04:00 +1°C° 0.1 mm 4 m/s 743 mmHg 92%
    05:00 +1°C° 0.1 mm 4 m/s 743 mmHg 92%
    06:00 +1°C° 0.2 mm 4 m/s 743 mmHg 91%
    07:00 +1°C° 0.2 mm 4 m/s 743 mmHg 90%
    08:00 +1°C° 0.2 mm 4 m/s 743 mmHg 89%
    09:00 +1°C° 0.1 mm 5 m/s 742 mmHg 87%
    10:00 +1°C° 0.1 mm 5 m/s 742 mmHg 85%
    11:00 +2°C° 0.1 mm 5 m/s 742 mmHg 83%
    12:00 +2°C° 0.1 mm 5 m/s 742 mmHg 84%
    13:00 +1°C° 0.1 mm 5 m/s 742 mmHg 84%
    14:00 +1°C° 0.1 mm 5 m/s 741 mmHg 85%
    15:00 +1°C° 0.3 mm 4 m/s 741 mmHg 85%
    16:00 0°C° 0.3 mm 4 m/s 741 mmHg 84%
    17:00 0°C° 0.3 mm 4 m/s 741 mmHg 84%
    18:00 -1°C° 0.2 mm 4 m/s 742 mmHg 85%
    19:00 -1°C° 0.2 mm 5 m/s 742 mmHg 86%
    20:00 -2°C° 0.2 mm 5 m/s 743 mmHg 86%
    21:00 -2°C° 0.3 mm 5 m/s 743 mmHg 86%
    22:00 -4°C° 0.3 mm 6 m/s 744 mmHg 85%
    23:00 -4°C° 0.3 mm 6 m/s 745 mmHg 84%

    Après-demain, 21 Février, Jeudi

    Heure Température Précipitation Vent Pression Humidité
    00:00 -4°C° 0.1 mm 6 m/s 745 mmHg 82%
    01:00 -4°C° 0.1 mm 6 m/s 746 mmHg 79%
    02:00 -5°C° 0.1 mm 6 m/s 747 mmHg 77%
    03:00 -5°C° 0.1 mm 6 m/s 748 mmHg 76%
    04:00 -6°C° 0.1 mm 6 m/s 748 mmHg 75%
    05:00 -6°C° 0.1 mm 6 m/s 749 mmHg 74%
    06:00 -6°C° 0.1 mm 6 m/s 750 mmHg 74%
    07:00 -6°C° 0.1 mm 6 m/s 750 mmHg 74%
    08:00 -6°C° 0.1 mm 6 m/s 751 mmHg 74%
    09:00 -6°C° 0.1 mm 6 m/s 752 mmHg 72%
    10:00 -6°C° 0.1 mm 6 m/s 753 mmHg 69%
    11:00 -6°C° 0.1 mm 6 m/s 754 mmHg 67%
    12:00 -6°C° 0.1 mm 6 m/s 754 mmHg 67%
    13:00 -6°C° 0.1 mm 6 m/s 755 mmHg 66%
    14:00 -6°C° 0.1 mm 5 m/s 756 mmHg 65%
    15:00 -7°C° 0 mm 5 m/s 757 mmHg 65%
    16:00 -7°C° 0 mm 5 m/s 758 mmHg 66%
    17:00 -8°C° 0 mm 5 m/s 759 mmHg 67%
    18:00 -8°C° 0 mm 5 m/s 760 mmHg 67%
    19:00 -10°C° 0 mm 5 m/s 760 mmHg 67%
    20:00 -10°C° 0 mm 5 m/s 761 mmHg 67%
    21:00 -11°C° 0 mm 5 m/s 762 mmHg 67%
    22:00 -10°C° 0 mm 4 m/s 763 mmHg 67%
    23:00 -10°C° 0 mm 4 m/s 763 mmHg 67%

    22 Février, Vendredi

    Heure Température Précipitation Vent Pression Humidité
    00:00 -10°C° 0 mm 4 m/s 764 mmHg 68%
    01:00 -11°C° 0 mm 4 m/s 765 mmHg 69%
    02:00 -11°C° 0 mm 4 m/s 766 mmHg 71%
    03:00 -10°C° 0 mm 3 m/s 766 mmHg 73%
    04:00 -10°C° 0 mm 3 m/s 767 mmHg 75%
    05:00 -10°C° 0 mm 3 m/s 768 mmHg 77%
    06:00 -10°C° 0 mm 3 m/s 768 mmHg 77%
    07:00 -10°C° 0 mm 3 m/s 769 mmHg 77%
    08:00 -10°C° 0 mm 3 m/s 769 mmHg 77%
    09:00 -9°C° 0 mm 3 m/s 769 mmHg 71%
    10:00 -9°C° 0 mm 3 m/s 770 mmHg 65%
    11:00 -9°C° 0 mm 4 m/s 770 mmHg 58%
    12:00 -8°C° 0 mm 4 m/s 770 mmHg 58%
    13:00 -7°C° 0 mm 4 m/s 770 mmHg 59%
    14:00 -6°C° 0 mm 5 m/s 770 mmHg 59%
    15:00 -7°C° 0 mm 4 m/s 770 mmHg 64%
    16:00 -8°C° 0 mm 4 m/s 770 mmHg 68%
    17:00 -8°C° 0 mm 4 m/s 771 mmHg 73%
    18:00 -8°C° 0 mm 4 m/s 771 mmHg 73%
    19:00 -9°C° 0 mm 4 m/s 772 mmHg 74%
    20:00 -9°C° 0 mm 4 m/s 772 mmHg 74%
    21:00 -8°C° 0 mm 3 m/s 772 mmHg 76%
    22:00 -8°C° 0 mm 3 m/s 773 mmHg 77%
    23:00 -8°C° 0 mm 2 m/s 773 mmHg 79%

    23 Février, Samedi

    Heure Température Précipitation Vent Pression Humidité
    00:00 -8°C° 0 mm 2 m/s 773 mmHg 82%
    01:00 -7°C° 0 mm 1 m/s 773 mmHg 85%
    02:00 -8°C° 0 mm 1 m/s 773 mmHg 88%
    03:00 -8°C° 0 mm 1 m/s 773 mmHg 87%
    04:00 -8°C° 0 mm 1 m/s 773 mmHg 86%
    05:00 -7°C° 0 mm 1 m/s 772 mmHg 85%
    06:00 -7°C° 0 mm 1 m/s 772 mmHg 84%
    07:00 -7°C° 0 mm 1 m/s 772 mmHg 83%
    08:00 -7°C° 0 mm 1 m/s 771 mmHg 82%
    09:00 -7°C° 0.1 mm 2 m/s 771 mmHg 83%
    10:00 -7°C° 0.1 mm 2 m/s 770 mmHg 83%
    11:00 -6°C° 0.1 mm 2 m/s 770 mmHg 84%
    12:00 -6°C° 0.5 mm 2 m/s 769 mmHg 86%
    13:00 -7°C° 0.5 mm 3 m/s 769 mmHg 87%
    14:00 -6°C° 0.5 mm 3 m/s 769 mmHg 89%
    15:00 -6°C° 0.1 mm 3 m/s 769 mmHg 89%
    16:00 -5°C° 0.1 mm 2 m/s 769 mmHg 88%
    17:00 -5°C° 0.1 mm 2 m/s 768 mmHg 88%
    18:00 -5°C° 0 mm 2 m/s 769 mmHg 89%
    19:00 -5°C° 0 mm 2 m/s 769 mmHg 90%
    20:00 -4°C° 0 mm 1 m/s 770 mmHg 92%
    21:00 -4°C° 0 mm 1 m/s 770 mmHg 93%
    22:00 -4°C° 0 mm 1 m/s 770 mmHg 94%
    23:00 -6°C° 0 mm 1 m/s 771 mmHg 95%

    24 Février, Dimanche

    Heure Température Précipitation Vent Pression Humidité
    00:00 -6°C° 0 mm 1 m/s 771 mmHg 95%
    01:00 -6°C° 0 mm 1 m/s 771 mmHg 95%
    02:00 -7°C° 0 mm 1 m/s 772 mmHg 95%
    03:00 -7°C° 0 mm 1 m/s 772 mmHg 95%
    04:00 -7°C° 0 mm 1 m/s 772 mmHg 95%
    05:00 -7°C° 0 mm 1 m/s 772 mmHg 95%
    06:00 -7°C° 0 mm 2 m/s 772 mmHg 95%
    07:00 -7°C° 0 mm 2 m/s 772 mmHg 94%
    08:00 -7°C° 0 mm 2 m/s 772 mmHg 94%
    09:00 -6°C° 0 mm 3 m/s 771 mmHg 91%
    10:00 -5°C° 0 mm 3 m/s 771 mmHg 87%
    11:00 -4°C° 0 mm 3 m/s 771 mmHg 84%
    12:00 -3°C° 0 mm 4 m/s 770 mmHg 84%
    13:00 -3°C° 0 mm 4 m/s 769 mmHg 83%
    14:00 -2°C° 0 mm 4 m/s 769 mmHg 83%
    15:00 -2°C° 0 mm 4 m/s 768 mmHg 84%
    16:00 -2°C° 0 mm 4 m/s 767 mmHg 86%
    17:00 -3°C° 0 mm 4 m/s 766 mmHg 87%
    18:00 -2°C° 0.2 mm 4 m/s 765 mmHg 88%
    19:00 -2°C° 0.2 mm 5 m/s 765 mmHg 88%
    20:00 -2°C° 0.2 mm 5 m/s 764 mmHg 89%
    21:00 -1°C° 0.1 mm 4 m/s 763 mmHg 90%
    22:00 -1°C° 0.1 mm 4 m/s 762 mmHg 91%
    23:00 -1°C° 0.1 mm 4 m/s 762 mmHg 92%
    Voir plus